Weather History for Winnemucca, NV

Change the Weather History Date:

Monday, August 11, 2014

  Actual Average Record
Temperature  
Mean Temperature 68 °F 72 °F  
Max Temperature 83 °F 93 °F 106 °F (1940)
Min Temperature 53 °F 50 °F 36 °F (1985)
Degree Days  
Heating Degree Days 0 0  
Month to date heating degree days 4 0  
Since 1 June heating degree days 78 115  
Since 1 July heating degree days 4 10  
Cooling Degree Days 3 7  
Month to date cooling degree days 78 84  
Year to date cooling degree days 555 417  
Since 1 June cooling degree days 546 406  
Growing Degree Days 18 (Base 50)    
Moisture  
Dew Point 44 °F    
Average Humidity 43    
Maximum Humidity 64    
Minimum Humidity 22    
Precipitation  
Precipitation T in 0.01 in 0.23 in (1906)
Month to date precipitation 0.45 0.07  
Year to date precipitation 4.54 5.25  
Snow  
Snow 0.00 in 0.00 in 0.00 in (1877)
Month to date snowfall 0.0 0.0  
Since 1 June snowfall 0.0 T  
Since 1 July snowfall 0.0 0.0  
Snow Depth 0.00 in    
Sea Level Pressure  
Sea Level Pressure 30.04 in    
Wind  
Wind Speed 9 mph (SE)    
Max Wind Speed 29 mph    
Max Gust Speed 36 mph    
Visibility 10 miles    
Events Rain , Thunderstorm    
T = Trace of Precipitation, MM = Missing Value Source: NWS Daily Summary

Daily Weather History Graph

Daily Weather History Graph

Search for Another Location

Airport:

Trip Planner

Search our weather history database for the weather conditions in past years. The results will help you decide how hot, cold, wet, or windy it might be!

Date:

Astronomy

Aug. 11, 2014 Rise Set
Actual Time 5:57 AM PDT 7:54 PM PDT
Civil Twilight 5:27 AM PDT 8:24 PM PDT
Nautical Twilight 4:50 AM PDT 9:00 PM PDT
Astronomical Twilight 4:11 AM PDT 9:40 PM PDT
Moon 8:25 PM PDT (8/11) 7:08 AM PDT (8/11)
Length of Visible Light 14h 57m
Length of Day
13h 57m
Full, 98% of the Moon is Illuminated
Aug 11
Full
Aug 17
Last Quarter
Aug 25
New
Sep 2
First Quarter
Sep 8
Full

Hourly Weather History & Observations

Time (PDT) Temp. Dew Point Humidity Pressure Visibility Wind Dir Wind Speed Gust Speed Precip Events Conditions
12:56 AM 68.0 °F 39.2 °F 35% 30.14 in 10.0 mi Calm Calm - N/A   Clear
1:56 AM 64.9 °F 41.0 °F 42% 29.97 in 10.0 mi North 5.8 mph - N/A   Clear
2:56 AM 64.0 °F 42.1 °F 45% 29.96 in 10.0 mi NE 8.1 mph - N/A   Clear
3:56 AM 57.9 °F 43.0 °F 58% 29.98 in 10.0 mi SE 6.9 mph - N/A   Clear
4:56 AM 57.9 °F 42.1 °F 56% 29.98 in 10.0 mi North 4.6 mph - N/A   Clear
5:56 AM 53.1 °F 41.0 °F 64% 30.01 in 10.0 mi SW 5.8 mph - N/A   Clear
6:56 AM 60.1 °F 45.0 °F 57% 30.00 in 10.0 mi East 4.6 mph - N/A   Clear
7:56 AM 71.1 °F 41.0 °F 34% 30.00 in 10.0 mi ENE 11.5 mph - N/A   Clear
8:56 AM 75.0 °F 41.0 °F 29% 30.00 in 10.0 mi ENE 6.9 mph - N/A   Clear
9:56 AM 79.0 °F 41.0 °F 26% 30.01 in 10.0 mi NE 4.6 mph - N/A   Clear
10:56 AM 80.1 °F 41.0 °F 25% 30.01 in 10.0 mi Calm Calm - N/A   Partly Cloudy
11:56 AM 82.9 °F 39.9 °F 22% 30.01 in 10.0 mi SSE 8.1 mph - N/A Thunderstorm Mostly Cloudy
12:09 PM 75.9 °F 48.0 °F 37% 30.19 in 6.0 mi East 12.7 mph 23.0 mph 0.00 in Rain , Thunderstorm Thunderstorms and Rain
12:24 PM 73.9 °F 48.0 °F 40% 30.21 in 10.0 mi South 20.7 mph 29.9 mph 0.00 in Rain Light Rain
12:36 PM 73.0 °F 48.9 °F 42% 30.21 in 10.0 mi SSE 15.0 mph 26.5 mph 0.00 in Rain Light Rain
12:56 PM 75.0 °F 48.0 °F 38% 30.08 in 10.0 mi SSE 13.8 mph - 0.00 in   Overcast
1:56 PM 73.9 °F 48.9 °F 41% 30.12 in 10.0 mi SSE 27.6 mph 34.5 mph N/A   Overcast
2:56 PM 75.0 °F 48.9 °F 40% 30.08 in 10.0 mi SE 13.8 mph - 0.00 in   Overcast
3:56 PM 77.0 °F 45.0 °F 32% 30.05 in 10.0 mi South 6.9 mph - 0.00 in   Clear
4:56 PM 80.6 °F 44.6 °F 28% 30.15 in 10.0 mi SE 11.5 mph - N/A   Mostly Cloudy
5:56 PM 80.1 °F 45.0 °F 29% 30.01 in 10.0 mi South 12.7 mph 19.6 mph N/A   Clear
6:56 PM 79.0 °F 43.0 °F 28% 29.99 in 10.0 mi SSE 10.4 mph - N/A   Clear
7:56 PM 73.9 °F 44.1 °F 34% 29.98 in 10.0 mi South 10.4 mph - N/A   Clear
8:56 PM 70.0 °F 44.1 °F 39% 29.99 in 10.0 mi SSE 10.4 mph - N/A   Clear
9:56 PM 70.0 °F 44.1 °F 39% 29.99 in 10.0 mi SW 9.2 mph - N/A   Clear
10:56 PM 64.0 °F 44.1 °F 48% 30.01 in 10.0 mi Calm Calm - N/A   Clear
11:56 PM 57.9 °F 44.1 °F 60% 30.02 in 10.0 mi SE 5.8 mph - N/A   Clear